COSMOS 1275 DEB, 12666

Orbit data source: Space-Track

COSMOS 1275 DEB, 12666 is space debris in LEO originally from a launch on Thu, 04 Jun 1981 UTC launched from the Plesetsk Missile And Space Complex (PKMTR). Debris objects in space refer to the collection of defunct objects orbiting the Earth. Examples of debris include non-operational satellites, rocket bodies, and fragments generated from explosions, collisions, or faulty payload assembly.

Loading next visibility...
Identifier
12666, 1981-053W
Orbit
LEO
Country
Flag of CISCIS
Related business
Manufacturer
Unknown
Mission
Spacecraft
Bus & Motor
Unknown
Mass
Unknown
Launch date (UTC)
1981-06-04 (45 years ago)
Launch vehicle
Unknown
Launch site
Plesetsk Missile And Space Complex (PKMTR)
Object type
Payload
Rocket body
Debris
Shape & HBR
Unknown shape, 0.2 m
Radar Cross Section
Medium (>0.1 m² and <1 m²)

Expand to show TLE details & history
Last TLE update: 11 hours ago

TLE from 11 hours ago
0 COSMOS 1275 DEB
1 12666U 81053W   26254.47411520  .00000301  00000-0  29680-3 0  9993
2 12666  82.8746 156.2370 0069942  13.6657 161.9137 13.74481805254932
Epoch: 2026-09-11T11:22Z
TLE epoch observation values (Epoch: 2026-09-11T11:22:43.553Z)
Latitude
4.05155°
Longitude
174.55387°
Altitude
1,034.976 km
Speed
7.31 km/s
True Right ascension
22h 22m 55s
True Declination
4° 01' 42"
Sunlit
Object was in full shadow at epoch
Visualization orbit readout
Latitude
Unknown
Longitude
Unknown
Altitude
Unknown
Speed
Unknown
Apparent Right ascension
Unknown
Apparent Declination
Unknown
Sunlit
N/A
Visualization observer readout
Local Sidereal Time
14:34:07
Azimuth
Unknown
Elevation
Unknown
Doppler factor
Unknown
Orbital elements
Apogee altitude
1,032.145 km
Perigee altitude
929.207 km
Semi-major axis
7,358.813 km
Eccentricity
0.00699
Inclination
82.8746°
RAAN
156.237°
Arg. of periapsis
13.6657°
True anomaly
162.16047°
Mean anomaly
161.9137°
Eccentric anomaly
162.03729°
Mean motion
3.4382 °/min
Orbital period
104.71 mins
BSTAR
0.0002968
Loading maneuver chart data...
Computing Atmospheric mass density...
Loading historical data...
Loading historical data...
Loading historical data...
Loading historical data...
Loading historical data...
Loading historical data...
Loading historical data...

Documentation

Showing up to 5 results
|